Starlink 2314

operational
NORAD ID: 47788 Int'l Des: 2021-018 Owner: SPXS Country: US Constellation: starlink
LEOCIRCULARSTARLINK_TYPE

About Starlink 2314

Description loading...

Live Position

Loading 3D Globe...

Upcoming Passes

Altitude History

Altitude vs Time

uPlot chart will show altitude changes over time

Two-Line Element Set

1 47788U 21018B 25302.80987361 -.00000926 00000-0 -43284-4 0 9994
2 47788 53.0514 94.1606 0001446 90.5839 269.5316 15.06398432257231
Epoch: Oct 29, 2025 • Age: 12 hours

Current Status

Altitude 548.0 km
Velocity 7.59 km/s
Sub-Earth Point 27.99°N, 101.36°E
Launch Date Mar 11, 2021
Age 4.6 years
Type internet

Technical Details

Classification Payload
Mass 260.00 kg
Dry Mass 248.00 kg
Total Mass 260.00 kg
Length 0.20 m
Diameter 2.80 m
Span 9.00 m
Shape Box + pan
Manufacturer SPXS
Bus Type Starlink
Phase Status In Orbit
Owner/State SPXS/US

Large Constellations

Loading constellations...